Location: Thouarc�
(47.2667°N, 0.5000°W)
Time: 00:19:44
(UTC+02:00)

Tiangong - Visible Passes

Search period start: 16 April 2024 00:00
Search period end: 26 April 2024 00:00
Orbit: 371 x 381 km, 41.5° (Epoch: 15 April)

Date Brightness Start Highest point End Pass type
(mag) Time Alt. Az. Time Alt. Az. Time Alt. Az.
18 Apr -0.3 21:55:01 10° SSW 21:56:55 15° SSE 21:57:35 15° SE visible
19 Apr -0.8 22:28:07 10° SW 22:30:29 24° S 22:30:29 24° S visible
20 Apr -0.2 23:01:50 10° WSW 23:03:13 20° SW 23:03:13 20° SW visible
21 Apr -1.0 21:59:30 10° SW 22:02:10 26° S 22:03:46 17° SE visible
22 Apr -1.0 22:33:22 10° WSW 22:36:02 26° S 22:36:17 25° S visible
23 Apr 0.1 23:07:34 10° WSW 23:08:45 16° SW 23:08:45 16° SW visible
24 Apr -0.6 22:04:58 10° WSW 22:07:29 23° S 22:09:08 15° SSE visible
25 Apr 0.0 22:39:27 10° WSW 22:41:12 14° SSW 22:41:33 14° SSW visible
